Regional Weather Roundup
Issued by NWS

Home | Current Version | Previous Version | Graphics & Text | Print | Product List | Glossary On
Versions: 1 2 3 4 5 6 7 8 9 10 11 12 13 14 15 16 17 18 19 20 21 22 23 24 25 26 27
000
ASUS45 KTFX 301010
RWRMT
MONTANA REGIONAL WEATHER ROUNDUP
NATIONAL WEATHER SERVICE GREAT FALLS MT
400 AM MDT SAT JUL 30 2016

NOTE: "FAIR" INDICATES FEW OR NO CLOUDS BELOW 12000 FEET WITH NO
SIGNIFICANT WEATHER AND/OR OBSTRUCTIONS TO VISIBILITY.

MTZ001>007-043-301100-
WEST OF THE DIVIDE

CITY           SKY/WX    TMP DP  RH WIND       PRES   REMARKS
KALISPELL      PTCLDY    56  54  93 N6        29.81S
MISSOULA       CLEAR     62  46  55 CALM      29.87F
BUTTE          CLEAR     54  41  61 SE6       30.02F
MULLAN PASS    CLEAR     67  40  37 W5        30.02F
DEER LODGE       N/A     52  46  82 CALM      29.98F
EUREKA           N/A     70  52  52 W3        29.79F
HAMILTON         N/A     66  45  45 CALM      29.89S
LIBBY            N/A     61  48  63 CALM      29.79F
PLAINS           N/A     60  50  69 CALM      29.83F
RONAN            N/A     56  50  80 MISG      29.88F
$$

MTZ008-052>055-301100-
SOUTHWEST MONTANA

CITY           SKY/WX    TMP DP  RH WIND       PRES   REMARKS
BOZEMAN        CLOUDY    58  51  78 NE6       29.95S
DILLON         CLEAR     52  44  74 SW5       29.98F
W YELLOWSTONE  CLOUDY    43  36  75 CALM      30.11F
$$

MTZ009-010-012-014-046-048-049-054-301100-
EAST SLOPES AND CENTRAL MONTANA

CITY           SKY/WX    TMP DP  RH WIND       PRES   REMARKS
CUT BANK         N/A     61  50  67 SE8       29.86F
GREAT FALLS    CLEAR     65  48  54 S8        29.87F
MALMSTROM AFB  CLEAR     64  50  60 S9        29.87F
HELENA         PTCLDY    65  46  50 W5        29.91F
CONRAD           N/A     54  52  93 CALM      29.90F
$$

MTZ011-013-016-021-045-047-050-051-301100-
NORTH CENTRAL MONTANA

CITY           SKY/WX    TMP DP  RH WIND       PRES   REMARKS
HAVRE          CLEAR     62  55  77 NE7       29.83F
CHINOOK          N/A     63  59  88 E7        29.84F
$$

MTZ017>020-022>027-061-062-301100-
NORTHEAST MONTANA

CITY           SKY/WX    TMP DP  RH WIND       PRES   REMARKS
GLASGOW        CLEAR     59  53  80 E9        29.88F
JORDAN           N/A     58  55  90 CALM      29.90F
SIDNEY         CLEAR     53  47  79 NW5       29.90F
WOLF POINT     CLEAR     57  53  86 E3        29.90F
POPLAR           N/A     54  52  94 CALM      29.90F
SCOBEY           N/A     52  38  58 CALM      29.90F
$$

MTZ028>42-056>058-301100-
SOUTHCENTRAL AND SOUTHEAST MONTANA

CITY           SKY/WX    TMP DP  RH WIND       PRES   REMARKS
BAKER          CLEAR     59  54  83 CALM      29.95F
BILLINGS       PTCLDY    65  51  60 CALM      29.92F
LIVINGSTON     CLEAR     58  47  66 CALM      29.97F
MILES CITY     CLEAR     63  53  70 E3        29.91F
EKALAKA          N/A     62  52  70 SE3       29.95F
FORSYTH          N/A     63  54  72 E3        29.89F
LAUREL           N/A     62  50  65 CALM      29.92F
ROUNDUP          N/A     61  51  69 CALM      29.85F
$$

REGIONAL REPORTS...DAKOTAS

CITY           SKY/WX    TMP DP  RH WIND       PRES   REMARKS
WILLISTON      CLEAR     57  54  89 CALM      29.90F
MINOT          MOCLDY    65  61  87 S3        29.90F
DICKINSON      CLEAR     53  53 100 CALM      29.91S FOG
BEACH            N/A     52  52 100 CALM      29.96S
CROSBY           N/A     57  57 100 SW7       29.92F
WATFORD CITY     N/A    N/A N/A N/A MISG        N/A
BISMARCK       TSTM      65  63  93 VRB6      29.94R FOG
GRAND FORKS    LGT RAIN  65  61  87 CALM      29.95F
FARGO          PTCLDY    67  61  81 S8        29.97S
BUFFALO SD       N/A     62  56  80 S3        29.88F
RAPID CITY     CLEAR     53  51  93 CALM      29.97F
$$

REGIONAL REPORTS...WYOMING/IDAHO/WASHINGTON

CITY           SKY/WX    TMP DP  RH WIND       PRES   REMARKS
GILLETTE       CLEAR     61  58  90 S12       30.00F
SHERIDAN       CLEAR     58  48  69 CALM      29.96F
BUFFALO WY     CLEAR     63  47  55 CALM      30.03F
CODY           CLOUDY    59  46  63 CALM      30.02F
YELLOWSTONE LA   N/A     44  41  89 NW3       30.22F
IDAHO FALLS    CLEAR     64  44  48 SW12      29.94R
SALMON         CLEAR     57  45  62 CALM      29.92R
BOISE          CLEAR     73  36  25 S6        29.81S
SPOKANE        CLEAR     70  43  37 S7        29.75F
$$

REGIONAL REPORTS...ALBERTA

CITY           SKY/WX    TMP DP  RH WIND       PRES   REMARKS
EDMONTON       PTCLDY    55  54  94 E5        29.78F
CALGARY        MOCLDY    63  54  72 NW7       29.79R
LETHBRIDGE     CLEAR     63  54  72 SW12      29.77F
MEDICINE HAT   CLEAR     61  54  77 VRB2      29.78F
WATERTON GATE    N/A     50  46  87 SW3         N/A
CARDSTON         N/A     63  50  63 SE3         N/A
MILK RIVER       N/A     59  52  77 S3          N/A
$$

REGIONAL REPORTS...SASKATCHEWAN

CITY           SKY/WX    TMP DP  RH WIND       PRES   REMARKS
SWIFT CURRENT  CLEAR     57  54  88 S8        29.88S
REGINA         CLEAR     54  52  94 SE6       29.88S
SASKATOON      CLEAR     59  59 100 S3        29.84S
CYPRESS HILLS    N/A     59  52  77 SE7         N/A
VAL MARIE        N/A     52  50  93 E6          N/A
ROCKGLEN         N/A     57  52  82 S7          N/A
ASSINIBOIA       N/A     63  59  88 W13         N/A
$$




USA.gov is the U.S. government's official web portal to all federal, state and local government web resources and services.